Wind_Speed
13 12 12 12 12 13 12 11 11 10 9 9 10 10 11 13 14 16 16 17 17 17 16 16 15 15 15 17 20 21 22 24 24 24 23 21 19 18 16 15 14 14 13 12 12 12 12 12 12 13 14 16 17 18 18 19 19 19 20 20 21 22 23 24 24 25 26 28 28 29 29 27 27 27 26 25 26 26 27 27 27 28 29 30 31
14 13 13 13 13 13 12 12 12 11 11 12 13 13 14 16 18 19 19 19 18 17 17 17 17 18 19 21 23 24 25 24 23 23 21 20 18 16 15 14 13 13 13 11 11 12 12 12 12 13 15 16 17 17 18 18 19 19 19 20 21 22 22 23 23 24 25 26 28 28 28 27 26 27 26 25 25 25 26 26 27 27 28 28 29
18 18 18 18 16 15 15 15 14 14 15 17 18 17 18 20 21 22 22 21 20 19 19 19 21 22 23 25 25 25 24 23 22 21 20 18 16 15 14 13 12 12 12 10 11 11 12 12 13 14 16 16 17 17 18 18 19 19 19 20 21 22 22 22 22 23 24 26 27 26 26 25 25 25 26 25 25 24 25 25 26 27 27 28 28
24 25 24 23 21 21 20 20 19 18 19 22 21 20 21 23 24 24 24 23 22 21 22 23 24 25 25 25 25 24 23 22 20 19 17 16 15 14 12 11 10 11 12 10 10 11 12 12 13 15 16 16 17 17 17 18 18 19 19 20 21 22 22 22 23 24 25 26 26 25 24 24 23 23 25 25 24 24 24 24 25 26 26 27 27
28 30 29 28 27 25 25 25 24 23 24 25 24 24 25 27 27 27 26 26 25 25 25 26 26 25 25 23 22 21 20 19 18 16 15 14 13 12 11 10 9 10 11 9 9 11 11 12 14 15 15 16 16 16 17 18 18 19 19 20 21 22 22 22 24 24 25 26 26 24 22 22 22 22 23 24 25 24 24 24 24 24 25 26 27
31 32 33 32 31 29 29 29 28 28 28 28 27 28 30 30 31 30 29 28 27 26 26 25 24 23 22 21 19 18 18 17 15 14 13 12 11 10 9 8 8 9 10 9 9 10 11 12 13 14 14 15 15 16 17 17 18 19 20 21 22 22 23 23 25 25 26 26 25 23 21 21 21 21 21 23 24 24 23 23 24 24 24 24 25
31 32 34 34 33 32 32 31 31 30 30 30 30 31 32 32 32 31 30 29 27 26 24 23 22 21 19 18 17 16 15 14 13 12 11 10 9 7 6 6 7 8 9 9 10 10 10 11 12 13 13 14 14 15 16 17 18 19 20 21 22 22 23 24 25 25 25 25 23 22 21 20 20 20 20 23 24 24 23 23 23 24 24 24 24
29 31 32 33 33 33 32 31 31 31 31 31 31 31 31 30 30 30 29 27 25 24 22 21 19 18 17 15 14 13 13 12 11 10 9 8 6 5 4 4 6 6 7 9 11 10 9 10 11 12 13 13 14 14 15 16 17 18 19 21 22 23 24 25 25 24 24 23 22 21 20 20 20 19 20 22 24 24 24 23 23 23 24 24 24
27 29 31 30 31 30 30 30 29 29 30 30 29 29 29 28 27 26 26 25 23 22 20 19 17 16 14 13 11 11 10 9 8 7 6 5 4 3 2 3 4 5 6 11 13 10 9 9 10 11 12 12 12 14 15 16 17 18 19 21 22 24 24 24 24 23 23 23 22 21 20 20 20 20 20 21 23 24 24 24 23 22 23 24 24
24 26 28 28 28 28 28 27 27 27 27 27 27 27 26 26 25 23 22 21 20 19 18 17 15 13 12 10 8 7 7 6 5 4 4 3 3 2 1 2 3 4 7 12 14 11 9 8 9 10 10 11 12 13 14 15 16 18 20 21 23 24 24 23 23 23 23 23 22 21 20 20 20 20 21 21 22 23 24 24 24 23 22 23 24
27 26 26 26 25 26 25 25 24 24 25 25 24 24 23 23 22 21 19 18 17 16 15 14 13 11 10 8 7 6 6 5 4 4 4 3 2 1 1 1 3 6 10 14 14 11 9 8 8 9 9 10 11 13 14 15 17 19 20 21 23 23 22 22 23 24 24 23 21 20 20 20 20 21 21 22 23 23 24 25 25 24 23 22 23
35 33 31 29 27 26 24 23 22 22 22 22 22 22 21 21 20 19 18 17 16 15 14 13 12 11 9 8 7 7 6 6 6 5 5 4 3 2 2 5 8 10 12 15 13 11 9 8 7 8 8 10 12 13 15 16 17 19 20 22 23 22 21 21 23 24 25 24 22 20 20 20 21 21 22 22 23 24 24 25 25 25 24 23 23
37 37 36 36 34 32 30 28 26 25 24 23 22 21 21 20 19 18 18 17 16 15 15 15 14 13 13 12 12 12 12 11 11 10 9 9 8 7 7 9 11 12 13 14 13 10 8 7 7 7 9 11 13 14 15 16 18 19 21 22 22 21 19 21 23 24 25 24 22 20 20 20 21 22 22 23 23 23 24 25 26 25 24 23 23
35 35 36 36 36 35 35 34 33 31 30 28 27 26 25 24 23 23 22 21 21 20 20 19 19 19 18 18 17 17 16 15 14 13 13 12 11 10 9 9 11 12 13 13 11 9 7 6 6 7 9 11 12 14 15 17 18 19 20 21 21 19 18 20 22 23 24 24 22 20 20 21 22 23 23 23 23 23 24 24 25 25 24 23 23
35 35 34 34 34 34 33 33 33 32 32 31 30 29 29 28 27 26 25 24 23 22 21 20 20 20 19 18 17 17 16 15 14 13 13 12 11 11 10 10 10 11 10 10 9 7 6 5 6 8 9 11 12 14 16 17 17 19 20 20 20 17 16 19 21 22 23 24 22 20 20 21 23 25 24 24 24 24 24 24 25 25 24 23 23
34 34 34 33 33 33 32 32 31 31 30 30 29 28 27 26 26 25 24 23 23 21 20 19 19 19 18 17 16 16 16 15 15 15 14 14 13 13 12 11 10 10 9 8 7 7 6 7 8 9 9 10 13 14 16 17 17 18 19 19 19 16 15 17 20 21 22 22 21 19 20 22 25 27 26 26 26 24 24 25 25 25 24 24 23
31 31 32 32 31 31 31 31 31 31 30 29 28 27 26 26 25 25 24 24 23 22 21 20 20 20 19 18 18 18 18 17 16 16 16 16 16 14 13 12 11 10 9 8 8 8 8 8 8 8 9 11 13 15 16 16 17 18 19 19 19 15 15 16 19 21 21 21 21 19 20 23 25 28 28 27 27 25 25 26 26 26 25 24 24
28 29 29 29 29 29 29 29 29 30 29 29 28 27 26 26 26 25 25 24 24 23 22 21 21 21 20 20 20 19 18 18 17 16 16 16 15 15 14 13 11 10 9 9 8 8 8 8 8 8 10 12 13 15 16 16 16 16 18 19 19 16 15 16 18 21 21 19 19 19 19 22 25 28 28 29 28 27 27 28 27 26 25 25 25
28 28 27 27 27 27 27 27 27 27 27 27 26 26 25 25 25 25 24 23 22 21 20 20 20 19 19 19 19 19 19 18 17 17 16 15 14 14 13 12 11 10 9 9 8 8 7 8 8 10 11 12 13 14 15 16 16 15 16 18 18 17 16 16 18 21 21 18 17 17 19 21 24 27 28 29 29 28 29 29 28 27 27 27 27
28 28 27 26 25 25 25 24 24 24 24 24 24 24 23 23 23 22 22 21 20 19 18 18 18 18 17 17 17 17 17 17 17 16 16 16 15 14 13 12 11 10 9 9 9 8 8 9 10 11 12 12 13 14 15 17 17 16 17 18 18 16 15 17 19 21 21 17 14 16 18 20 22 26 28 29 30 30 30 30 30 29 29 29 29
29 28 27 26 26 25 24 24 23 23 23 22 22 22 21 21 21 20 20 19 18 17 17 17 17 16 16 15 15 15 15 15 15 15 15 15 15 14 14 13 12 11 10 10 10 9 10 11 11 12 12 12 13 14 15 17 18 17 17 18 17 15 14 16 19 20 21 18 14 15 18 20 23 26 28 29 31 31 32 32 31 31 31 30 30
31 30 29 28 27 26 25 24 24 23 23 22 22 21 20 20 19 19 18 18 17 16 15 15 15 15 15 14 14 13 13 13 14 14 14 14 14 13 13 12 12 11 10 10 9 9 9 10 11 11 12 13 13 14 16 17 17 17 17 17 16 14 13 16 18 19 20 18 17 17 20 23 25 27 28 29 31 32 32 32 32 32 32 32 32
32 31 30 30 29 29 28 27 26 25 24 23 22 22 21 20 19 18 18 17 16 15 14 14 14 14 13 13 12 12 12 12 12 13 13 13 13 12 11 11 11 10 9 10 10 10 9 9 10 11 12 13 14 15 17 17 17 17 17 17 15 14 14 16 18 19 20 20 21 21 23 25 26 28 29 30 31 32 33 33 33 33 34 34 34
32 31 31 31 31 30 29 29 28 27 26 25 24 23 22 21 20 19 18 17 16 15 14 14 13 13 12 12 11 11 11 11 11 11 12 12 12 12 11 10 9 9 9 9 10 11 10 10 10 11 12 13 14 16 17 16 16 17 16 16 15 15 17 18 20 21 22 23 24 25 26 27 28 29 30 31 32 33 34 34 34 36 36 36 36
30 31 31 30 30 30 30 29 29 28 27 26 25 24 23 22 21 20 18 17 16 15 14 14 13 13 12 12 11 11 11 11 11 11 11 11 11 11 11 10 9 9 9 9 10 11 11 11 11 11 13 14 15 16 16 16 16 16 16 16 17 18 20 22 24 25 26 27 27 29 30 30 31 32 33 34 34 35 36 37 38 39 39 40 39
28 29 29 29 29 30 29 29 29 28 27 27 26 25 24 23 22 20 19 18 17 16 15 14 13 13 13 12 11 11 11 11 11 11 11 11 11 11 11 10 10 10 10 10 11 12 12 13 13 14 15 15 16 15 15 15 16 17 18 19 21 23 25 27 28 28 29 30 31 32 33 34 35 36 37 38 39 40 40 42 43 43 44 44 43
27 27 27 28 28 28 28 28 28 28 28 27 26 25 25 24 23 21 20 19 18 17 16 15 15 14 14 13 13 12 12 12 12 12 12 12 12 11 11 11 11 12 12 13 13 14 15 15 16 16 16 16 16 16 16 17 19 20 22 24 27 28 30 30 31 31 32 33 34 35 37 38 39 40 41 43 44 45 46 47 48 49 49 49 48
25 26 26 26 26 26 27 27 27 28 28 27 27 26 26 25 24 23 22 21 20 19 18 17 17 16 16 16 15 15 15 15 14 14 14 14 13 13 13 13 13 14 15 15 16 17 17 17 17 16 16 16 16 17 19 21 23 25 27 29 31 32 32 33 33 34 35 36 37 39 40 41 42 43 44 46 47 48 50 51 52 53 54 54 53
23 24 24 25 25 25 25 26 26 26 27 27 27 27 26 26 25 24 23 22 22 21 20 20 20 19 19 19 18 18 18 18 17 17 16 16 16 15 15 15 16 16 17 18 18 18 18 18 18 18 18 18 19 21 23 25 28 30 32 33 34 34 35 35 35 36 37 38 39 41 42 43 44 45 46 47 48 50 51 52 53 54 55 56 56
21 22 23 24 25 25 25 25 26 25 26 26 27 27 27 26 26 25 25 24 24 23 23 22 22 22 22 22 21 21 21 21 20 20 19 18 18 18 18 18 18 19 19 20 20 20 20 20 21 21 22 24 26 28 29 31 33 34 35 35 36 36 36 36 37 37 38 39 40 41 42 43 44 45 46 47 48 49 50 51 52 53 54 56 56
19 20 21 22 23 25 25 25 26 25 25 25 25 26 26 26 26 26 26 25 25 25 24 24 24 24 24 24 24 24 23 23 23 22 22 21 20 20 20 20 21 21 22 23 23 23 24 24 25 26 28 30 32 34 35 36 37 37 37 37 36 36 36 37 37 38 38 39 40 41 42 42 43 44 45 46 46 47 48 48 49 50 51 53 54
18 19 20 22 23 24 25 25 26 26 25 25 25 24 25 25 25 25 25 25 25 25 25 25 25 25 26 26 26 25 25 25 24 24 24 23 23 23 23 23 24 24 25 26 26 27 28 29 30 32 33 35 37 38 39 39 38 38 38 37 37 37 37 37 38 38 39 39 40 40 40 41 41 42 42 43 44 44 45 45 46 47 48 49 50
17 18 19 21 22 22 23 24 24 25 25 24 24 23 23 23 23 24 24 24 25 25 25 25 25 26 26 26 26 26 26 25 25 25 25 25 25 26 26 26 27 27 28 29 29 30 32 33 34 36 37 38 39 39 39 38 38 38 37 37 37 37 37 37 38 38 37 37 37 37 38 38 39 39 39 40 40 41 41 41 42 43 44 45 46
15 16 17 18 20 21 21 22 22 22 23 23 23 22 22 22 22 22 22 23 23 24 24 24 24 25 25 24 25 25 25 25 25 25 26 26 27 27 27 28 28 29 30 30 31 32 33 35 36 37 38 38 39 38 38 38 37 37 36 36 36 36 36 36 35 35 34 34 34 34 34 35 36 36 36 37 37 37 37 37 38 39 40 41 42
14 14 16 17 17 18 19 20 20 20 21 21 21 21 21 20 20 20 21 21 22 22 23 23 23 23 23 23 23 23 23 23 24 24 25 26 26 27 28 28 28 29 30 30 31 32 32 34 35 35 36 37 36 36 36 36 36 35 35 34 34 33 33 33 32 31 31 31 31 31 31 31 31 31 32 33 34 34 34 34 34 35 35 36 37
13 13 14 15 16 17 18 18 18 18 19 19 19 20 19 19 19 19 19 19 20 21 21 21 21 21 21 21 21 21 21 21 22 23 24 25 26 26 27 27 27 28 29 30 30 31 31 32 33 33 33 34 33 33 33 33 33 32 31 31 30 30 29 29 28 27 27 27 27 27 27 27 27 27 28 29 30 31 32 33 33 33 33 33 33
10 11 12 13 14 15 17 17 17 17 17 18 18 18 18 18 17 17 17 17 18 19 19 19 19 19 19 19 19 18 18 19 19 20 21 23 24 25 26 26 26 26 27 28 28 29 30 30 30 31 31 31 31 31 30 29 29 28 27 26 26 25 25 24 24 23 23 24 24 24 24 24 24 24 25 25 27 28 29 30 30 30 30 30 30
9 10 11 12 12 13 14 16 17 16 16 17 17 18 17 16 16 15 15 15 15 16 17 17 17 17 17 17 17 16 16 16 17 18 19 20 21 23 24 24 24 24 24 25 25 26 27 28 28 28 28 29 29 29 28 26 25 23 23 22 21 20 19 19 19 19 19 19 20 20 20 21 21 21 21 22 23 25 26 27 27 27 27 28 28
8 9 10 10 10 11 12 13 15 16 16 17 16 17 16 15 14 14 13 13 13 13 14 15 15 15 15 15 14 14 13 13 13 14 16 18 19 20 22 23 23 23 22 23 23 23 24 24 24 24 25 25 25 24 24 23 21 19 19 18 17 16 15 14 14 14 14 15 15 15 16 17 18 18 19 19 21 22 24 24 24 25 25 26 26
8 9 9 9 9 9 10 11 13 14 15 16 16 16 16 16 14 13 12 11 11 11 11 11 12 12 12 12 12 11 10 10 10 11 12 14 16 17 19 20 21 22 21 21 21 21 21 21 20 19 19 20 19 18 17 16 15 14 13 12 12 12 11 11 11 10 9 10 10 11 11 12 13 15 16 17 19 20 22 22 23 23 23 24 24
12 9 8 8 9 10 10 10 10 11 12 14 15 14 15 15 15 14 12 11 10 10 9 9 8 8 8 9 8 8 7 7 6 7 8 10 12 14 16 18 19 20 20 19 19 18 18 18 16 14 13 13 13 11 10 9 8 7 7 6 8 8 8 8 8 8 7 6 7 8 9 9 10 12 14 15 16 18 20 21 22 22 22 22 23
16 12 10 9 9 11 13 12 10 10 10 11 13 13 13 14 15 15 14 12 10 9 9 7 6 5 5 5 5 4 4 3 3 3 4 6 8 9 12 14 15 16 17 17 16 15 14 13 11 9 8 7 6 5 5 4 4 4 4 4 6 7 6 6 7 8 8 8 8 9 9 10 10 12 13 15 16 18 19 20 21 21 21 22 22
16 14 13 12 12 14 16 16 14 11 9 10 11 12 13 14 14 15 15 14 12 10 9 8 6 5 3 2 1 1 0 1 1 0 1 2 4 5 7 9 11 12 13 14 14 13 12 10 8 6 4 3 2 1 0 2 3 4 4 5 6 7 7 7 8 8 9 10 10 11 11 12 12 13 14 15 17 18 19 20 20 21 21 21 22
15 15 16 15 15 15 17 18 16 13 11 10 11 11 13 14 15 15 16 16 14 12 10 9 8 7 5 5 4 3 3 3 3 4 4 4 4 5 6 6 8 9 10 11 12 12 11 9 8 7 5 5 4 4 4 4 5 6 6 7 8 8 9 10 10 10 10 11 11 12 13 13 14 15 16 16 18 18 19 20 20 20 20 20 20
18 18 18 17 16 16 16 16 16 15 13 12 13 13 13 14 15 15 16 16 16 15 14 11 10 9 8 8 8 7 7 7 7 7 7 8 8 8 9 9 9 10 10 11 11 11 11 10 10 9 9 8 8 7 7 8 8 9 9 9 10 10 11 12 12 13 13 14 15 16 16 16 16 17 17 18 19 20 20 20 20 20 19 19 18
22 21 20 18 17 15 14 16 17 17 16 14 15 16 15 15 16 16 16 17 17 17 17 15 13 12 11 11 11 11 11 11 11 11 11 11 12 12 12 13 13 13 13 13 13 13 13 13 12 12 12 11 11 11 11 11 11 12 12 13 14 14 14 15 16 16 17 17 18 20 21 21 21 21 21 21 22 22 22 21 21 20 19 18 17
26 25 23 22 19 15 14 17 20 19 19 19 19 19 18 18 19 19 19 19 19 19 19 18 16 14 14 13 12 13 14 14 14 14 15 15 15 15 15 16 16 16 16 16 16 16 16 16 15 15 15 14 14 14 14 14 14 15 16 17 18 18 18 20 21 21 22 23 22 22 23 24 25 24 25 25 25 25 24 24 23 22 20 18 16
30 28 26 24 21 17 16 18 21 22 21 22 23 21 20 20 21 22 22 22 22 20 20 20 19 18 16 15 14 14 15 16 16 17 19 19 19 19 18 19 19 19 19 19 20 21 21 20 19 19 19 19 19 18 18 18 18 19 19 20 22 23 22 23 25 25 26 26 25 23 23 25 26 25 25 26 26 26 26 25 23 22 21 19 16
33 30 27 25 21 19 19 20 22 24 22 23 24 24 23 22 23 24 25 26 25 24 22 21 22 22 21 19 18 17 16 17 18 19 21 23 23 23 22 22 22 22 21 22 24 26 25 24 23 23 23 23 23 23 23 22 23 24 24 24 26 26 26 25 26 26 25 27 28 24 20 22 24 24 23 23 24 24 25 24 21 19 18 16 15
34 31 29 28 25 22 22 23 24 24 23 24 26 28 27 26 26 26 28 29 29 28 26 24 24 24 24 23 22 21 19 18 19 21 23 25 26 26 25 25 24 23 22 23 27 28 27 26 27 26 26 27 27 27 27 27 27 27 28 27 28 28 27 25 25 25 25 26 29 26 19 16 18 21 21 18 17 19 21 20 17 15 13 12 12
35 32 30 30 29 26 25 26 27 25 26 28 29 31 31 31 30 30 31 32 32 32 31 29 28 28 27 27 27 26 24 21 20 21 22 24 26 26 26 26 25 23 22 24 27 28 28 28 28 28 28 28 28 28 28 28 27 27 28 28 27 27 27 26 25 26 26 25 27 26 20 13 12 17 20 16 12 14 18 17 15 14 12 11 11
Wind_Direction
93 101 109 117 124 128 133 142 148 152 154 148 142 139 138 134 130 127 126 126 125 124 123 120 116 113 111 110 109 113 117 119 120 119 119 117 112 107 101 92 83 74 69 79 93 93 87 81 78 72 63 57 53 50 46 43 41 38 36 34 33 33 32 29 25 22 20 18 18 19 19 20 21 21 22 25 27 28 29 30 29 28 30 31 34
87 95 102 107 111 117 125 131 133 135 134 127 123 123 126 126 124 122 121 121 121 121 119 115 112 111 111 111 113 117 119 121 121 121 119 115 112 107 100 92 83 74 68 81 99 97 89 84 78 70 63 59 54 50 45 42 39 36 33 31 30 31 30 27 23 20 18 16 17 19 19 19 20 20 21 23 25 26 27 28 29 29 29 32 34
86 92 95 97 102 107 111 112 112 117 118 115 114 117 120 120 119 118 117 117 116 115 113 111 112 112 113 115 117 120 122 123 123 121 119 116 113 107 100 91 83 75 67 82 104 100 94 86 78 70 64 60 55 49 45 41 37 34 31 28 28 27 26 23 19 18 15 14 15 18 20 19 19 19 20 21 22 24 25 27 28 28 28 31 33
86 89 91 94 96 99 101 101 104 109 108 107 109 113 115 115 113 112 112 111 111 111 111 111 112 113 115 117 119 121 122 123 122 120 119 117 114 108 101 91 83 75 67 82 108 105 98 88 79 73 68 62 56 49 44 39 34 30 27 25 25 24 21 18 16 14 12 11 13 17 19 21 20 18 18 20 21 22 23 24 26 27 27 29 31
86 89 91 93 94 96 98 99 101 102 100 101 105 109 109 108 106 106 105 106 107 108 110 111 112 113 115 117 118 120 120 122 121 121 119 117 114 108 101 90 81 76 69 83 110 108 98 88 81 76 70 63 56 48 42 36 31 27 24 22 22 20 17 15 13 11 9 8 11 15 19 22 22 19 18 20 21 21 22 23 23 24 25 26 28
85 89 91 92 94 95 95 96 96 96 97 99 101 102 101 101 101 102 102 103 105 106 107 108 110 111 113 114 116 117 119 121 121 120 117 115 112 106 101 88 79 77 71 87 114 110 98 87 81 77 70 62 54 46 39 33 28 24 22 20 19 17 14 11 9 8 6 6 10 15 19 23 23 21 18 19 21 22 22 23 22 22 22 23 25
85 88 90 91 92 92 92 93 94 95 95 96 96 96 97 98 99 101 102 103 104 104 104 105 106 108 110 111 113 115 117 119 118 118 114 111 109 102 95 83 79 81 75 95 119 111 96 85 79 74 66 57 50 43 37 31 26 23 21 19 17 13 10 8 7 6 5 6 10 15 20 23 24 24 19 18 20 22 23 23 22 21 21 21 21
86 86 87 89 91 92 92 93 94 94 94 93 93 94 95 96 97 99 101 102 103 103 103 102 102 103 105 108 110 112 113 113 113 112 109 107 104 95 83 77 85 85 81 107 123 113 96 84 75 68 59 52 45 39 34 29 25 22 19 16 13 11 9 8 7 5 6 9 13 17 20 23 25 26 23 19 18 20 22 23 23 22 21 20 19
85 86 86 86 88 90 91 92 93 93 93 93 93 93 94 94 96 97 99 100 102 102 102 101 100 100 100 101 103 105 105 104 104 102 99 96 90 80 75 79 89 81 90 119 127 116 99 83 70 61 52 46 39 35 31 26 23 20 17 13 11 10 8 8 8 8 10 13 17 19 21 23 24 26 24 21 19 19 21 22 22 21 20 20 19
83 85 87 88 88 89 90 91 92 93 94 94 95 94 94 95 95 96 96 98 99 99 99 98 97 96 95 94 93 91 88 86 82 79 75 71 66 66 65 73 85 84 111 129 129 119 106 86 65 53 43 36 31 29 26 22 20 17 13 11 11 10 8 10 13 14 15 17 19 20 21 23 24 24 23 21 21 20 20 21 21 20 19 19 19
79 82 85 87 89 89 89 90 91 92 93 93 93 93 93 93 92 92 92 92 91 91 90 90 88 87 85 82 75 67 61 55 44 37 32 25 23 9 302 128 105 110 127 132 129 122 111 89 64 46 32 24 22 23 22 19 16 14 11 11 11 10 10 15 19 18 18 20 21 22 23 24 24 24 22 19 19 20 21 21 21 19 18 18 19
75 78 80 82 84 86 87 88 88 89 89 89 89 89 89 88 87 86 85 84 82 80 79 77 76 74 70 64 56 49 45 36 30 28 29 38 54 79 130 124 115 121 133 134 130 124 110 89 65 40 21 14 17 20 18 16 13 11 10 11 11 10 14 22 22 19 20 22 24 25 25 27 26 25 22 19 19 19 21 22 21 20 18 17 18
75 76 77 78 79 80 82 83 84 84 85 85 86 86 86 85 84 83 81 79 77 75 73 72 70 68 65 62 60 58 57 55 56 60 65 74 86 100 111 112 114 124 133 133 129 120 104 83 59 32 14 12 15 17 15 12 11 11 11 11 10 13 21 26 22 19 20 23 26 28 30 31 28 26 22 20 19 19 20 21 21 20 19 18 18
76 76 76 77 77 78 78 79 79 79 80 80 81 82 82 82 82 81 80 79 77 75 73 72 71 70 68 67 67 67 66 66 67 70 75 83 90 95 97 100 111 124 131 131 126 115 97 74 48 25 15 13 15 15 12 9 9 11 12 11 12 17 26 26 21 19 20 24 28 31 33 32 27 24 21 19 19 20 21 22 21 21 20 19 19
76 76 76 77 77 77 77 77 77 77 77 77 77 77 77 78 78 78 78 77 76 74 73 72 72 72 71 71 70 70 69 68 70 72 75 79 82 82 82 86 99 113 120 119 115 104 87 61 37 24 17 16 14 12 9 7 9 14 16 14 16 21 27 24 19 17 20 24 30 33 34 29 24 21 19 18 18 20 23 23 22 22 21 20 20
74 75 76 76 76 77 77 78 78 78 77 77 76 76 76 76 76 76 76 75 75 74 73 73 73 74 73 73 73 73 72 71 72 74 75 75 74 74 76 80 85 92 97 95 86 75 62 47 35 26 19 17 14 10 8 7 11 17 19 18 19 22 26 23 17 16 19 24 29 32 29 23 20 19 19 19 19 22 25 25 24 23 22 21 22
72 73 74 75 75 75 76 77 77 77 76 76 76 75 75 74 74 74 73 73 72 72 71 70 71 71 70 69 68 69 70 70 71 73 75 76 75 75 75 76 77 78 76 71 63 55 48 45 38 28 20 17 13 10 9 8 13 19 21 21 20 21 22 20 14 14 18 22 26 28 23 18 17 18 19 20 22 26 27 26 25 26 25 24 25
71 71 72 72 73 73 73 74 74 75 74 74 74 74 73 72 71 71 70 70 70 70 69 68 67 66 65 63 63 62 62 63 64 67 70 72 75 76 76 76 74 71 67 61 56 50 45 42 36 26 20 16 11 8 9 9 13 19 20 21 19 18 18 14 9 10 15 19 23 24 19 16 15 17 20 22 26 28 27 26 27 28 28 28 29
68 68 68 69 69 70 71 71 72 73 73 72 71 70 70 69 69 68 68 68 68 67 66 65 64 63 62 62 62 61 59 57 57 58 60 62 64 66 67 68 67 65 62 56 50 43 35 26 23 21 18 14 8 6 8 9 12 15 16 17 16 15 13 7 2 5 12 16 20 20 17 14 14 17 20 23 27 29 26 26 29 31 31 32 33
65 66 66 65 66 67 67 67 68 69 70 70 70 68 67 66 65 65 65 65 64 63 62 61 60 59 58 57 58 60 59 58 56 55 55 55 54 54 52 50 48 46 44 41 38 28 15 11 15 17 13 9 4 2 4 8 10 10 10 11 10 10 5 358 358 4 11 14 15 15 14 15 17 19 22 24 28 30 28 28 30 32 34 36 37
62 64 65 65 64 64 63 63 63 64 65 66 66 66 66 65 64 64 63 62 61 59 58 57 56 56 55 54 54 54 56 57 56 55 54 54 53 51 48 44 39 35 31 29 28 18 8 10 14 11 6 4 3 2 5 7 8 7 9 9 6 3 356 355 1 9 14 17 17 17 19 23 26 25 26 28 30 31 30 30 32 35 37 39 39
60 61 63 64 64 64 63 62 61 60 60 60 61 62 62 62 62 62 61 61 59 58 57 57 56 54 54 53 53 52 52 53 54 53 52 52 53 51 48 45 40 36 31 27 22 13 10 12 11 6 4 5 5 5 6 7 7 9 11 10 6 2 360 6 14 18 22 28 32 32 32 34 33 32 32 33 34 34 34 33 35 37 40 42 43
58 58 59 61 62 63 63 62 61 60 59 58 58 57 57 57 57 57 57 57 56 55 55 55 55 55 54 53 53 51 50 49 49 50 50 50 51 49 46 44 40 35 29 24 17 13 13 13 11 7 6 7 6 6 8 11 13 14 15 14 13 16 21 27 31 34 38 44 46 46 45 43 41 40 40 40 39 39 38 38 39 41 43 45 46
57 57 57 58 60 61 61 62 62 61 60 59 58 58 56 55 54 53 53 52 51 50 51 51 51 51 52 51 49 49 49 48 47 48 49 49 48 46 41 38 35 30 24 18 12 11 13 13 11 8 6 8 9 11 15 20 22 22 23 27 32 39 45 49 51 53 55 56 56 56 55 53 51 50 49 48 47 46 45 44 45 47 47 48 50
56 57 56 57 58 59 60 60 61 61 60 60 60 59 58 57 56 54 53 53 51 50 49 49 49 48 47 47 44 43 44 45 45 45 45 45 44 40 34 28 27 25 22 17 11 10 12 12 11 11 13 17 20 21 23 29 34 37 41 48 56 62 65 66 66 66 66 65 66 65 64 62 60 59 58 57 56 54 53 52 52 53 53 53 54
55 56 56 56 57 58 59 59 60 60 60 60 60 60 60 58 58 57 57 56 55 55 54 52 51 49 46 44 41 39 39 40 41 41 40 39 37 34 28 22 21 21 20 19 17 17 19 21 22 23 26 30 34 35 38 44 50 56 61 68 74 77 77 75 74 73 73 73 73 72 71 69 68 67 66 65 64 62 61 60 59 58 58 58 58
52 53 55 56 56 56 58 58 59 60 60 60 59 59 60 59 58 58 57 57 57 57 56 55 54 52 49 46 44 42 41 40 39 40 39 38 37 34 29 25 23 24 24 25 27 29 31 33 34 36 38 41 44 49 57 63 67 72 77 82 85 84 82 80 80 80 80 80 79 78 77 76 75 74 73 71 70 69 68 67 65 64 63 62 61
48 49 51 52 54 55 55 56 56 57 58 58 58 58 58 58 58 58 57 56 56 55 54 54 54 53 52 50 49 48 48 47 45 44 43 43 43 40 38 36 33 33 34 35 37 40 43 46 48 51 54 55 58 64 71 77 81 85 88 90 89 88 87 86 86 87 86 85 84 84 82 81 80 79 77 76 75 75 73 72 71 69 68 67 65
43 45 46 47 49 51 51 53 53 54 55 56 56 56 56 57 56 57 56 56 55 54 53 53 53 53 53 52 51 51 51 52 51 50 48 48 47 47 46 46 44 43 44 46 49 52 55 59 62 66 69 72 76 80 84 88 91 93 94 94 93 93 92 92 92 92 90 89 88 88 86 85 83 82 81 80 79 78 77 76 75 74 73 72 71
42 42 42 42 43 45 46 48 49 50 51 52 54 54 54 54 54 54 54 54 54 54 53 53 53 53 52 52 52 51 51 52 53 52 52 51 50 51 52 53 54 54 55 58 61 64 67 71 75 80 83 86 89 92 94 96 98 99 99 99 98 98 97 96 96 94 93 92 91 89 88 86 85 84 83 82 80 79 78 78 77 77 76 75 74
44 41 40 39 39 40 40 41 43 45 46 48 50 52 52 52 52 52 52 52 52 52 52 51 51 51 50 50 50 50 50 51 52 53 54 54 54 55 57 61 63 65 68 70 73 77 81 84 87 91 93 96 98 100 102 103 104 104 104 103 102 101 100 99 97 96 94 93 91 90 89 87 86 85 83 82 81 79 78 78 77 77 76 76 75
40 40 39 39 38 37 37 36 37 39 41 43 44 47 49 49 50 50 50 51 50 50 50 49 49 49 49 49 49 49 50 51 52 54 56 58 59 62 64 68 71 75 78 82 85 88 91 94 96 98 100 103 105 107 108 109 109 108 106 105 104 102 101 100 98 96 93 91 90 89 88 86 85 83 82 80 79 78 77 77 76 75 75 75 75
32 34 35 37 37 36 35 34 34 34 35 37 39 40 43 45 47 48 48 49 49 48 48 48 48 48 49 49 49 50 52 53 54 56 58 62 64 67 71 74 78 82 86 90 92 95 98 100 102 105 107 109 110 112 112 112 111 109 108 106 105 103 102 100 97 94 91 88 87 86 84 84 82 80 79 78 76 75 74 73 73 73 73 74 74
29 30 30 31 34 35 35 33 33 32 31 33 34 34 36 38 42 45 46 47 48 47 47 46 46 47 49 50 51 53 55 57 59 61 63 66 69 72 74 79 84 89 92 95 97 100 102 105 107 109 111 113 114 114 114 113 111 110 108 107 105 103 101 98 95 91 89 86 84 82 81 80 80 78 75 73 72 71 70 69 69 69 70 70 71
24 27 27 26 28 31 32 32 31 30 30 30 31 32 32 32 34 38 42 45 46 46 46 45 45 46 47 49 52 56 59 61 63 66 69 71 74 76 79 83 88 93 97 100 101 103 105 108 110 112 113 115 115 115 115 113 112 110 108 105 104 103 100 96 92 88 86 84 80 78 78 77 75 73 70 67 66 65 65 65 66 66 67 68 68
18 19 22 22 23 26 28 29 28 27 27 27 29 30 31 31 30 31 36 40 43 45 45 45 45 45 46 47 50 56 61 65 68 71 74 77 80 82 85 88 93 97 101 104 106 107 109 111 113 115 116 116 116 116 114 113 111 108 105 104 103 101 99 94 88 84 81 79 76 73 72 71 68 65 63 60 57 56 56 57 58 60 64 65 66
16 12 13 13 16 21 23 24 24 23 24 24 27 29 30 31 30 29 32 35 39 43 44 44 44 45 46 47 48 53 59 66 70 74 78 82 86 89 92 94 98 102 105 108 110 112 113 115 116 117 118 118 117 116 113 109 106 102 98 97 97 97 96 91 85 81 77 73 70 68 65 62 60 58 56 53 49 47 47 47 49 51 54 55 56
7 2 4 5 9 15 17 18 18 17 17 19 23 26 28 29 29 28 30 33 36 41 43 44 43 43 44 46 47 50 55 64 71 77 82 86 90 94 97 101 104 106 109 111 113 115 117 119 119 119 120 119 118 115 111 105 100 96 91 87 84 83 84 83 80 76 72 66 63 60 56 53 51 50 48 46 42 39 38 39 40 40 41 41 42
354 350 350 355 1 7 9 11 14 13 11 11 16 21 22 23 24 24 26 30 33 38 42 45 45 42 41 42 44 47 51 59 69 78 86 92 96 99 102 106 110 113 114 116 117 118 120 121 120 121 122 121 120 117 114 108 100 94 92 85 76 72 73 74 71 67 65 62 56 51 48 45 42 39 37 35 32 30 29 30 31 31 31 31 32
325 335 338 341 348 356 359 1 6 9 9 7 8 14 16 15 15 17 19 22 26 32 38 44 46 45 43 42 42 45 49 55 67 80 92 100 104 107 110 113 117 119 121 123 124 123 123 123 121 120 121 121 119 115 113 109 100 92 90 83 72 70 72 68 59 53 56 58 51 45 42 38 33 27 24 22 20 19 18 19 19 20 20 21 22
287 306 321 328 333 338 340 344 353 1 4 4 3 5 8 7 5 6 8 11 13 18 25 35 42 44 45 45 43 43 47 54 67 84 98 109 115 118 120 123 125 127 128 129 130 130 130 128 124 119 120 121 117 110 103 98 87 76 71 63 53 55 59 48 33 27 30 30 26 25 22 19 15 12 9 8 7 6 6 7 7 8 9 10 12
265 282 298 309 315 322 325 325 330 343 351 355 356 355 355 356 355 355 357 360 1 1 4 11 22 30 35 44 48 44 42 46 60 86 107 122 129 131 134 136 137 138 139 138 138 140 140 140 136 126 122 124 117 105 92 74 54 34 23 17 14 18 21 14 4 1 0 356 351 350 351 352 353 352 351 351 352 352 354 355 356 357 359 0 2
255 269 280 287 294 306 315 313 307 314 330 339 343 344 343 344 346 345 345 347 349 348 346 347 348 349 345 346 12 39 7 332 313 250 192 173 166 161 158 157 156 156 157 157 155 155 156 157 159 155 148 151 151 133 14 356 348 339 337 336 335 338 342 345 344 340 339 338 334 329 326 328 332 334 334 336 337 339 342 344 346 348 350 352 353
259 266 269 272 280 293 307 309 300 294 302 316 323 328 332 334 336 336 335 335 336 336 333 328 325 321 310 295 279 260 248 245 246 250 247 243 231 219 208 198 190 186 183 180 178 177 179 182 186 191 196 202 220 245 268 284 296 298 301 307 310 313 314 318 321 320 319 319 319 317 314 314 317 319 321 323 325 328 331 333 335 338 340 343 346
263 263 260 262 267 276 291 303 301 292 288 296 306 310 317 323 325 326 328 326 325 325 324 319 312 305 298 290 281 271 261 254 250 249 247 245 244 239 233 226 221 218 214 210 207 207 208 209 209 210 213 218 227 240 254 266 276 282 286 289 294 299 301 302 303 305 306 307 309 310 310 309 309 311 312 315 317 320 322 323 324 326 328 332 335
257 254 249 253 258 263 273 286 291 289 283 287 296 301 302 306 310 313 317 320 318 315 314 313 310 303 294 288 283 276 268 261 257 254 252 249 246 244 243 239 235 233 232 231 229 228 226 225 225 226 228 231 236 242 249 256 264 271 278 283 287 290 293 295 295 295 295 298 300 303 305 306 306 307 308 309 311 312 313 314 314 315 317 320 323
253 247 244 249 255 259 263 269 273 276 278 283 289 294 294 295 298 301 305 309 311 310 306 304 303 301 296 289 283 277 273 269 265 261 257 254 251 249 248 247 245 244 244 244 243 240 239 238 240 244 245 245 247 250 253 256 260 266 272 278 284 287 289 291 293 293 293 294 294 295 297 298 300 300 301 302 305 306 305 305 305 305 306 307 310
248 243 243 248 250 253 258 265 266 264 271 281 284 287 290 291 291 294 296 297 300 302 301 298 293 292 292 289 284 279 274 272 271 268 263 259 255 253 253 252 252 251 252 254 253 250 249 249 252 254 257 258 258 259 260 263 265 267 270 275 280 284 285 287 290 291 292 294 295 295 291 291 291 291 291 292 295 298 298 297 296 296 296 295 296
244 241 243 247 245 245 252 262 264 261 266 278 279 278 285 289 288 289 289 289 290 292 293 291 287 285 285 285 282 279 275 272 269 268 267 264 260 257 256 256 255 255 257 259 259 256 255 255 257 258 260 262 263 263 264 266 268 271 273 275 279 282 284 285 287 289 292 294 298 300 296 290 289 288 284 284 285 287 288 288 288 286 283 281 284
238 238 243 247 247 244 244 250 256 258 262 268 270 273 280 286 287 286 285 285 285 285 285 283 281 281 282 285 283 279 275 272 268 266 267 267 265 263 262 261 260 259 260 263 263 263 261 260 260 260 261 263 265 267 267 268 270 273 275 277 279 282 283 284 285 287 290 293 297 302 304 299 293 290 287 285 284 282 281 281 280 275 269 269 275
230 233 240 246 249 247 240 240 246 251 255 257 261 268 276 283 286 286 284 283 282 281 280 278 275 275 278 282 284 280 275 271 269 269 271 271 271 269 267 266 265 263 262 264 266 268 268 267 265 264 263 262 264 266 269 271 272 273 275 275 277 278 280 282 283 285 287 290 293 297 302 303 294 291 291 290 287 282 281 280 277 274 275 281 285
Height
10947 10946 10946 10946 10946 10946 10946 10946 10947 10947 10947 10946 10946 10946 10946 10946 10946 10947 10948 10949 10949 10950 10951 10951 10952 10952 10953 10954 10954 10955 10956 10957 10958 10959 10960 10961 10962 10963 10963 10963 10963 10962 10962 10962 10961 10961 10962 10961 10961 10960 10959 10958 10957 10956 10955 10954 10953 10952 10951 10949 10947 10946 10944 10942 10941 10940 10938 10936 10934 10932 10930 10929 10927 10925 10923 10921 10919 10916 10914 10912 10910 10908 10906 10903 10901
10946 10946 10946 10946 10946 10946 10946 10946 10946 10947 10946 10946 10946 10946 10947 10947 10947 10948 10949 10950 10951 10952 10952 10952 10953 10954 10954 10955 10956 10957 10958 10959 10960 10961 10961 10962 10963 10963 10963 10963 10963 10963 10963 10963 10962 10962 10963 10962 10962 10961 10960 10959 10958 10957 10956 10955 10954 10953 10952 10950 10948 10947 10945 10944 10942 10941 10939 10937 10935 10933 10931 10929 10928 10926 10924 10922 10920 10918 10916 10914 10912 10910 10908 10906 10903
10947 10946 10946 10946 10946 10947 10947 10947 10947 10948 10947 10947 10947 10948 10948 10949 10949 10949 10950 10951 10952 10953 10953 10954 10955 10955 10956 10957 10957 10958 10959 10960 10961 10962 10963 10963 10964 10964 10964 10964 10964 10964 10964 10963 10963 10963 10964 10963 10963 10962 10961 10960 10959 10958 10957 10956 10955 10954 10953 10951 10949 10948 10946 10945 10943 10942 10940 10938 10936 10934 10932 10931 10929 10927 10925 10923 10921 10919 10917 10915 10913 10911 10909 10908 10905
10949 10947 10947 10947 10948 10948 10949 10949 10949 10950 10950 10949 10949 10950 10950 10951 10951 10951 10952 10953 10954 10954 10955 10956 10957 10957 10958 10959 10960 10960 10961 10962 10962 10963 10964 10964 10965 10965 10965 10965 10965 10965 10964 10964 10964 10964 10964 10964 10964 10962 10962 10961 10960 10959 10958 10957 10956 10955 10953 10952 10950 10949 10947 10946 10944 10943 10941 10939 10937 10935 10933 10932 10930 10928 10926 10924 10923 10921 10919 10917 10915 10913 10911 10909 10907
10951 10950 10949 10949 10950 10951 10951 10951 10952 10952 10952 10951 10952 10953 10953 10953 10953 10953 10954 10955 10956 10957 10958 10958 10959 10960 10961 10961 10962 10962 10963 10963 10964 10964 10965 10965 10966 10966 10966 10966 10965 10965 10965 10965 10965 10965 10965 10965 10964 10963 10962 10962 10961 10960 10959 10958 10957 10956 10954 10953 10951 10950 10948 10947 10945 10943 10941 10940 10938 10936 10934 10932 10931 10929 10927 10925 10924 10922 10920 10918 10916 10914 10912 10911 10909
10954 10953 10952 10952 10953 10954 10954 10954 10955 10955 10955 10955 10956 10956 10955 10955 10955 10956 10956 10958 10959 10960 10961 10962 10962 10963 10963 10964 10964 10964 10965 10965 10965 10966 10966 10966 10967 10967 10967 10966 10966 10966 10966 10966 10966 10967 10967 10966 10965 10964 10963 10963 10962 10961 10960 10959 10958 10957 10955 10954 10952 10951 10949 10948 10946 10944 10942 10940 10939 10937 10935 10933 10931 10930 10928 10927 10925 10923 10921 10919 10917 10915 10914 10912 10910
10957 10956 10955 10955 10956 10957 10957 10957 10958 10958 10958 10958 10959 10959 10958 10958 10958 10959 10959 10960 10962 10963 10964 10965 10965 10965 10966 10966 10966 10966 10967 10967 10967 10967 10967 10968 10968 10968 10968 10967 10967 10967 10967 10967 10968 10968 10968 10967 10966 10965 10965 10964 10963 10962 10961 10960 10959 10957 10956 10955 10953 10952 10950 10948 10947 10945 10943 10941 10939 10938 10936 10934 10932 10931 10929 10927 10926 10924 10922 10920 10918 10917 10915 10913 10911
10961 10960 10959 10959 10959 10959 10960 10961 10961 10961 10961 10961 10962 10962 10962 10962 10962 10962 10963 10964 10965 10966 10967 10967 10968 10968 10968 10968 10968 10968 10969 10969 10969 10969 10969 10969 10969 10969 10969 10968 10968 10968 10968 10968 10969 10969 10969 10969 10968 10967 10966 10965 10964 10963 10962 10961 10959 10958 10957 10956 10954 10952 10951 10949 10947 10946 10944 10942 10940 10938 10936 10935 10933 10932 10930 10928 10927 10925 10923 10921 10919 10918 10916 10914 10912
10964 10963 10962 10962 10962 10963 10964 10964 10964 10964 10964 10964 10965 10965 10966 10966 10966 10966 10967 10967 10968 10968 10969 10969 10970 10970 10970 10970 10970 10970 10971 10971 10970 10970 10970 10970 10970 10970 10970 10970 10969 10969 10969 10969 10969 10970 10970 10970 10969 10968 10967 10966 10965 10964 10963 10962 10960 10959 10958 10956 10955 10953 10951 10950 10948 10946 10945 10943 10941 10939 10937 10936 10934 10932 10931 10929 10928 10926 10924 10922 10920 10919 10917 10915 10913
10967 10966 10965 10966 10966 10966 10967 10967 10967 10967 10967 10967 10968 10968 10968 10969 10969 10970 10970 10970 10971 10971 10971 10971 10971 10972 10972 10972 10972 10972 10972 10972 10972 10971 10971 10971 10971 10971 10971 10970 10970 10970 10970 10970 10970 10971 10971 10971 10971 10970 10969 10968 10967 10965 10964 10963 10961 10960 10959 10957 10956 10954 10952 10951 10949 10947 10945 10943 10942 10940 10938 10937 10935 10933 10932 10930 10929 10927 10925 10923 10921 10920 10918 10916 10914
10970 10969 10969 10969 10969 10969 10969 10970 10970 10970 10970 10970 10970 10971 10971 10971 10971 10972 10972 10973 10973 10973 10973 10973 10973 10973 10973 10973 10973 10973 10973 10973 10973 10972 10972 10972 10972 10972 10971 10971 10970 10970 10970 10971 10971 10971 10972 10972 10972 10971 10970 10969 10968 10967 10965 10964 10963 10961 10960 10958 10956 10955 10953 10952 10950 10949 10947 10945 10943 10941 10940 10938 10936 10935 10933 10932 10930 10928 10926 10924 10922 10921 10919 10917 10916
10974 10973 10972 10972 10972 10972 10972 10973 10973 10973 10973 10973 10973 10973 10973 10973 10973 10974 10974 10975 10975 10976 10975 10975 10975 10975 10974 10974 10974 10974 10974 10974 10973 10973 10973 10973 10972 10972 10972 10971 10971 10971 10971 10972 10972 10972 10973 10973 10973 10972 10971 10970 10969 10968 10967 10965 10964 10962 10961 10959 10957 10956 10955 10953 10952 10950 10948 10946 10945 10943 10941 10940 10938 10936 10935 10933 10931 10929 10927 10925 10923 10921 10920 10918 10916
10978 10977 10976 10976 10975 10976 10976 10976 10976 10976 10976 10976 10976 10976 10976 10976 10976 10976 10977 10977 10977 10977 10977 10976 10976 10976 10976 10975 10975 10975 10975 10975 10974 10974 10974 10973 10973 10973 10973 10972 10972 10972 10973 10973 10973 10974 10974 10974 10974 10973 10973 10972 10971 10969 10968 10967 10965 10963 10962 10960 10959 10957 10956 10955 10954 10952 10950 10948 10946 10944 10943 10941 10940 10938 10936 10934 10932 10930 10928 10926 10924 10922 10920 10919 10917
10981 10981 10980 10980 10980 10980 10980 10980 10980 10979 10979 10979 10979 10979 10978 10978 10978 10979 10979 10979 10979 10979 10979 10978 10978 10978 10977 10977 10977 10977 10977 10977 10976 10976 10976 10975 10975 10975 10975 10974 10974 10974 10975 10975 10975 10975 10975 10975 10975 10974 10974 10973 10972 10970 10969 10968 10966 10965 10963 10961 10960 10959 10958 10957 10955 10954 10952 10950 10948 10946 10945 10943 10941 10940 10938 10936 10934 10931 10929 10927 10925 10923 10921 10919 10918
10984 10984 10983 10983 10984 10984 10984 10983 10983 10983 10983 10983 10982 10982 10982 10982 10981 10981 10981 10981 10981 10981 10981 10981 10980 10980 10980 10980 10980 10979 10979 10979 10979 10979 10978 10978 10978 10977 10977 10977 10977 10977 10977 10977 10977 10976 10976 10976 10976 10975 10975 10974 10973 10971 10970 10969 10968 10966 10964 10963 10962 10960 10959 10958 10957 10955 10953 10951 10949 10948 10946 10945 10943 10941 10939 10937 10935 10932 10930 10928 10926 10924 10922 10920 10919
10987 10987 10987 10987 10987 10987 10987 10987 10986 10986 10986 10986 10985 10985 10985 10985 10985 10984 10984 10984 10984 10984 10984 10983 10983 10983 10982 10982 10982 10982 10981 10981 10981 10981 10980 10980 10980 10980 10980 10980 10980 10980 10980 10979 10979 10978 10978 10977 10977 10976 10976 10975 10974 10973 10971 10970 10969 10967 10966 10964 10963 10962 10961 10960 10958 10957 10955 10953 10951 10949 10948 10946 10944 10942 10940 10938 10936 10933 10931 10929 10927 10925 10923 10921 10920
10991 10990 10990 10990 10990 10990 10990 10989 10989 10988 10988 10988 10988 10988 10988 10988 10988 10987 10987 10986 10986 10986 10986 10986 10986 10985 10985 10985 10984 10984 10984 10984 10984 10983 10983 10982 10982 10982 10982 10982 10983 10982 10982 10982 10981 10980 10980 10979 10978 10978 10977 10976 10975 10974 10973 10971 10970 10969 10967 10966 10965 10963 10962 10961 10959 10958 10956 10954 10953 10951 10949 10947 10945 10943 10941 10939 10937 10935 10932 10930 10928 10926 10924 10923 10921
10994 10993 10993 10993 10993 10992 10992 10992 10991 10991 10991 10991 10991 10991 10991 10991 10990 10990 10989 10989 10989 10989 10989 10989 10988 10988 10988 10987 10987 10987 10987 10987 10986 10986 10985 10985 10985 10985 10985 10985 10985 10984 10984 10984 10983 10982 10981 10980 10979 10978 10978 10977 10976 10975 10974 10973 10971 10970 10969 10967 10966 10965 10963 10962 10961 10959 10957 10956 10954 10952 10951 10949 10947 10945 10942 10940 10938 10936 10934 10931 10929 10927 10925 10924 10922
10997 10996 10996 10995 10995 10995 10995 10994 10994 10993 10993 10993 10993 10993 10993 10993 10992 10992 10991 10991 10991 10991 10992 10991 10991 10991 10990 10990 10990 10990 10990 10989 10989 10989 10988 10988 10987 10987 10987 10987 10986 10986 10986 10985 10984 10983 10983 10982 10980 10979 10978 10977 10977 10976 10975 10974 10972 10971 10970 10969 10967 10966 10964 10963 10962 10960 10958 10957 10955 10954 10952 10950 10948 10946 10944 10942 10939 10937 10935 10933 10930 10928 10927 10925 10923
10999 10998 10998 10998 10998 10997 10997 10997 10997 10996 10995 10995 10995 10995 10995 10995 10994 10994 10994 10994 10994 10994 10994 10994 10993 10993 10993 10993 10992 10992 10992 10992 10991 10991 10990 10990 10989 10989 10988 10988 10988 10988 10987 10986 10986 10985 10984 10983 10982 10980 10979 10978 10977 10977 10976 10975 10973 10972 10971 10970 10968 10967 10966 10964 10962 10961 10959 10958 10956 10955 10953 10951 10949 10947 10945 10943 10941 10939 10937 10934 10932 10930 10928 10925 10924
11002 11001 11001 11001 11001 11000 11000 11000 10999 10999 10998 10998 10997 10997 10997 10997 10996 10996 10996 10996 10996 10996 10996 10996 10995 10995 10995 10995 10995 10994 10994 10993 10993 10993 10992 10991 10991 10990 10990 10990 10989 10989 10988 10987 10987 10986 10985 10984 10982 10981 10980 10979 10978 10978 10977 10975 10974 10973 10972 10970 10969 10968 10967 10965 10963 10962 10960 10958 10957 10956 10954 10953 10951 10949 10947 10944 10942 10940 10938 10936 10933 10931 10929 10927 10925
11005 11005 11004 11003 11003 11003 11003 11002 11002 11001 11001 11000 11000 10999 10999 10999 10998 10998 10998 10998 10998 10998 10998 10998 10997 10997 10997 10997 10996 10996 10996 10995 10994 10994 10993 10993 10992 10991 10991 10991 10990 10990 10989 10989 10988 10987 10986 10984 10983 10982 10981 10980 10979 10978 10977 10976 10975 10973 10972 10971 10970 10969 10967 10966 10964 10962 10961 10960 10958 10957 10956 10954 10952 10950 10948 10946 10944 10942 10940 10938 10935 10933 10930 10928 10926
11008 11008 11007 11006 11006 11006 11005 11005 11004 11003 11003 11003 11002 11002 11001 11001 11000 11000 11000 11000 11000 11000 11000 11000 10999 10999 10999 10998 10998 10998 10997 10996 10996 10995 10994 10994 10993 10992 10992 10992 10991 10991 10990 10989 10988 10987 10986 10985 10984 10982 10981 10980 10979 10978 10977 10976 10975 10974 10972 10971 10970 10969 10968 10967 10965 10964 10962 10961 10960 10959 10958 10956 10954 10952 10950 10949 10947 10944 10942 10940 10938 10935 10932 10930 10928
11011 11010 11009 11009 11008 11008 11008 11007 11006 11006 11005 11005 11004 11004 11003 11003 11003 11003 11003 11002 11002 11002 11002 11002 11001 11001 11000 11000 10999 10999 10998 10998 10997 10996 10995 10994 10994 10993 10993 10992 10992 10991 10990 10989 10989 10988 10986 10985 10984 10983 10982 10981 10980 10978 10978 10977 10975 10974 10973 10972 10972 10971 10969 10968 10967 10965 10965 10964 10963 10962 10960 10958 10957 10955 10953 10951 10949 10947 10945 10943 10941 10938 10935 10933 10931
11013 11012 11012 11011 11011 11010 11010 11009 11009 11008 11008 11007 11007 11006 11006 11005 11005 11005 11005 11005 11004 11004 11004 11003 11003 11002 11001 11001 11000 11000 10999 10998 10998 10997 10996 10995 10994 10994 10994 10993 10992 10991 10991 10990 10989 10988 10987 10986 10985 10984 10983 10982 10980 10979 10978 10977 10976 10975 10974 10974 10973 10972 10971 10970 10969 10968 10968 10967 10966 10965 10964 10962 10960 10959 10957 10955 10953 10951 10949 10947 10944 10941 10938 10936 10934
11015 11015 11015 11014 11013 11013 11012 11012 11011 11011 11010 11010 11009 11009 11008 11008 11007 11007 11007 11007 11006 11006 11005 11004 11004 11003 11002 11002 11001 11001 11000 10999 10998 10997 10997 10996 10995 10994 10994 10994 10993 10992 10991 10990 10989 10988 10987 10986 10985 10984 10983 10982 10981 10980 10979 10979 10978 10977 10976 10976 10976 10975 10974 10973 10973 10972 10972 10971 10971 10970 10968 10967 10965 10963 10961 10959 10957 10955 10953 10951 10948 10945 10943 10940 10938
11018 11017 11017 11016 11016 11015 11015 11014 11014 11014 11013 11012 11012 11011 11011 11010 11010 11010 11009 11009 11008 11007 11007 11006 11005 11004 11003 11003 11002 11002 11001 11000 10999 10998 10997 10997 10996 10995 10995 10994 10993 10992 10992 10991 10990 10989 10988 10987 10986 10985 10984 10983 10982 10981 10981 10980 10980 10979 10979 10979 10979 10978 10977 10977 10977 10977 10976 10976 10975 10974 10973 10972 10970 10968 10966 10964 10962 10960 10958 10956 10953 10951 10948 10945 10943
11020 11020 11019 11019 11018 11018 11018 11017 11017 11016 11016 11015 11015 11014 11013 11013 11013 11012 11011 11011 11010 11009 11008 11007 11006 11005 11005 11004 11003 11003 11002 11001 11000 10999 10998 10997 10996 10996 10995 10995 10994 10993 10992 10992 10991 10990 10988 10987 10986 10986 10985 10984 10983 10983 10983 10983 10982 10982 10983 10983 10983 10982 10982 10981 10981 10981 10981 10981 10980 10979 10978 10977 10975 10973 10972 10970 10968 10966 10964 10962 10959 10957 10955 10952 10949
11022 11022 11021 11021 11020 11020 11020 11020 11019 11019 11018 11018 11017 11017 11016 11016 11015 11015 11014 11013 11012 11011 11010 11009 11008 11007 11006 11005 11004 11003 11002 11002 11001 11000 10999 10998 10997 10997 10996 10995 10995 10994 10993 10992 10992 10991 10990 10989 10988 10987 10987 10986 10986 10986 10986 10986 10986 10986 10987 10987 10987 10986 10986 10986 10986 10986 10985 10985 10984 10983 10982 10981 10980 10979 10977 10976 10974 10972 10970 10968 10966 10964 10961 10959 10956
11024 11023 11023 11023 11023 11022 11022 11022 11022 11022 11021 11021 11020 11020 11019 11018 11018 11017 11016 11015 11014 11013 11012 11011 11010 11009 11008 11007 11006 11005 11004 11003 11002 11001 11000 10999 10998 10998 10997 10997 10996 10995 10994 10994 10993 10992 10991 10990 10990 10989 10989 10989 10989 10989 10990 10990 10991 10991 10991 10991 10991 10990 10990 10990 10990 10990 10990 10989 10989 10988 10987 10986 10985 10984 10982 10981 10979 10977 10975 10974 10972 10970 10968 10965 10963
11025 11025 11025 11025 11025 11025 11025 11024 11024 11024 11024 11023 11023 11022 11021 11021 11020 11019 11019 11018 11017 11016 11015 11014 11012 11011 11010 11009 11008 11007 11006 11005 11003 11002 11002 11001 11000 11000 10999 10998 10998 10997 10996 10995 10995 10994 10993 10993 10993 10993 10992 10993 10993 10994 10994 10995 10996 10996 10996 10995 10995 10995 10995 10995 10995 10994 10994 10994 10993 10992 10991 10990 10989 10988 10987 10985 10984 10982 10980 10979 10977 10976 10974 10972 10970
11026 11026 11026 11027 11027 11027 11027 11027 11027 11026 11026 11025 11025 11024 11023 11023 11022 11021 11021 11020 11019 11018 11017 11016 11015 11014 11013 11012 11011 11009 11008 11007 11006 11005 11004 11003 11003 11002 11001 11001 11000 10999 10999 10998 10998 10997 10997 10997 10997 10997 10997 10997 10998 10998 10998 10999 11000 11000 11000 10999 10999 10999 10999 10999 10999 10999 10999 10998 10997 10996 10996 10995 10994 10992 10991 10990 10988 10987 10985 10984 10983 10981 10979 10977 10975
11028 11028 11028 11028 11028 11028 11028 11028 11028 11028 11028 11027 11027 11026 11025 11025 11024 11023 11023 11022 11021 11020 11020 11019 11018 11017 11016 11014 11013 11012 11011 11010 11009 11008 11007 11006 11006 11005 11005 11004 11003 11003 11002 11001 11001 11001 11001 11001 11001 11002 11002 11002 11002 11002 11003 11003 11003 11003 11003 11003 11003 11004 11004 11004 11003 11003 11003 11002 11001 11001 11000 10999 10998 10997 10996 10994 10993 10991 10990 10989 10988 10986 10984 10982 10981
11029 11029 11029 11029 11029 11029 11029 11029 11029 11029 11029 11029 11029 11029 11028 11027 11026 11026 11025 11024 11024 11023 11022 11021 11020 11020 11018 11017 11016 11015 11014 11013 11012 11012 11011 11010 11010 11009 11009 11008 11008 11007 11006 11006 11005 11005 11006 11006 11006 11006 11007 11007 11007 11007 11007 11007 11007 11007 11007 11007 11007 11008 11008 11008 11007 11007 11007 11006 11005 11004 11004 11003 11002 11001 11000 10999 10997 10996 10995 10994 10992 10990 10989 10987 10985
11030 11030 11030 11030 11030 11030 11030 11030 11030 11030 11030 11031 11031 11030 11030 11029 11029 11028 11028 11027 11026 11026 11025 11024 11023 11022 11022 11021 11020 11019 11018 11017 11016 11015 11015 11014 11014 11013 11013 11013 11012 11012 11011 11011 11010 11010 11010 11011 11011 11011 11012 11012 11012 11012 11012 11011 11011 11011 11011 11011 11011 11011 11011 11011 11011 11010 11010 11009 11009 11008 11007 11006 11005 11004 11003 11002 11001 11000 10999 10998 10996 10994 10993 10991 10990
11031 11031 11031 11031 11031 11031 11031 11031 11031 11031 11031 11031 11032 11032 11031 11031 11031 11030 11030 11029 11029 11028 11027 11027 11026 11025 11024 11024 11023 11022 11021 11020 11020 11019 11018 11018 11018 11017 11017 11017 11017 11017 11016 11016 11016 11016 11015 11015 11016 11016 11016 11016 11016 11016 11016 11016 11016 11015 11015 11015 11015 11015 11015 11014 11014 11014 11013 11013 11012 11011 11010 11009 11008 11007 11006 11005 11004 11003 11002 11001 10999 10998 10997 10995 10994
11031 11031 11031 11031 11032 11032 11032 11032 11032 11032 11032 11032 11032 11033 11032 11032 11032 11032 11031 11031 11031 11030 11030 11029 11028 11028 11027 11026 11026 11025 11025 11024 11023 11023 11022 11022 11021 11021 11021 11021 11021 11021 11021 11021 11021 11020 11020 11020 11020 11020 11020 11020 11020 11020 11020 11020 11020 11020 11020 11019 11019 11019 11018 11018 11017 11017 11016 11016 11015 11014 11013 11012 11011 11010 11009 11008 11007 11006 11005 11003 11002 11001 11000 10998 10997
11031 11031 11031 11031 11032 11032 11032 11032 11032 11033 11033 11033 11033 11033 11033 11033 11033 11032 11032 11032 11032 11032 11032 11031 11031 11030 11030 11029 11028 11028 11028 11027 11027 11026 11026 11025 11025 11025 11025 11025 11025 11025 11025 11025 11025 11025 11024 11024 11024 11024 11024 11024 11024 11024 11024 11024 11024 11023 11023 11023 11022 11022 11021 11021 11020 11019 11019 11018 11018 11017 11016 11015 11014 11013 11012 11011 11009 11008 11007 11006 11005 11003 11002 11001 11000
11031 11031 11031 11031 11031 11032 11032 11032 11032 11032 11032 11033 11033 11033 11033 11033 11033 11033 11033 11033 11033 11033 11033 11033 11032 11032 11032 11031 11031 11030 11030 11030 11030 11029 11029 11029 11029 11028 11028 11028 11028 11028 11028 11028 11028 11028 11028 11028 11028 11027 11027 11027 11027 11026 11026 11026 11026 11026 11025 11025 11025 11024 11024 11023 11022 11021 11021 11020 11019 11019 11018 11017 11016 11015 11014 11013 11012 11011 11009 11008 11007 11005 11004 11003 11002
11029 11030 11030 11031 11031 11031 11031 11031 11032 11032 11032 11032 11032 11033 11033 11033 11033 11033 11033 11033 11033 11033 11034 11034 11033 11033 11033 11033 11032 11032 11032 11032 11032 11032 11032 11032 11031 11031 11031 11031 11030 11030 11031 11031 11031 11031 11031 11031 11030 11030 11030 11029 11029 11029 11028 11028 11028 11027 11027 11027 11026 11026 11025 11024 11024 11023 11022 11021 11021 11020 11019 11018 11017 11017 11016 11015 11014 11012 11011 11010 11009 11007 11006 11005 11004
11028 11028 11029 11030 11030 11031 11031 11031 11031 11031 11031 11032 11032 11032 11033 11033 11033 11033 11033 11033 11033 11033 11034 11034 11034 11034 11034 11034 11033 11033 11033 11033 11033 11033 11033 11033 11033 11033 11033 11033 11033 11032 11032 11032 11032 11032 11032 11032 11032 11032 11032 11031 11031 11030 11030 11030 11029 11029 11028 11028 11027 11027 11026 11025 11025 11024 11023 11022 11022 11021 11020 11019 11018 11018 11017 11016 11015 11014 11013 11011 11010 11009 11008 11007 11006
11025 11026 11027 11028 11029 11030 11031 11031 11030 11030 11030 11031 11031 11032 11032 11032 11032 11033 11033 11033 11033 11033 11033 11034 11034 11034 11034 11034 11034 11034 11034 11034 11034 11034 11034 11034 11035 11035 11035 11035 11035 11034 11034 11034 11033 11033 11033 11033 11033 11033 11033 11033 11032 11032 11031 11031 11030 11030 11029 11029 11028 11028 11027 11027 11026 11025 11024 11023 11022 11021 11021 11020 11019 11018 11017 11016 11015 11014 11013 11012 11011 11010 11009 11008 11007
11023 11024 11025 11026 11027 11028 11029 11029 11029 11029 11029 11029 11030 11030 11031 11031 11031 11032 11032 11033 11033 11033 11033 11033 11033 11034 11034 11034 11034 11034 11034 11034 11034 11034 11034 11035 11035 11035 11035 11035 11035 11035 11035 11035 11034 11034 11034 11034 11033 11033 11033 11033 11033 11033 11032 11032 11031 11030 11030 11029 11028 11028 11027 11027 11026 11026 11025 11024 11023 11022 11021 11020 11019 11019 11017 11016 11016 11015 11014 11013 11012 11011 11010 11009 11008
11020 11022 11023 11024 11024 11025 11027 11027 11027 11027 11027 11028 11028 11029 11030 11030 11030 11031 11031 11032 11032 11032 11032 11032 11033 11033 11033 11033 11034 11034 11034 11034 11034 11034 11034 11035 11035 11035 11035 11035 11035 11035 11035 11035 11035 11035 11034 11034 11034 11033 11033 11033 11033 11032 11032 11031 11031 11030 11030 11029 11028 11028 11027 11026 11026 11025 11024 11023 11023 11022 11021 11020 11020 11019 11018 11017 11016 11015 11014 11013 11012 11011 11010 11009 11009
11018 11020 11020 11021 11022 11023 11024 11025 11026 11026 11025 11025 11026 11027 11028 11029 11029 11029 11030 11030 11031 11031 11032 11032 11032 11032 11032 11033 11033 11033 11034 11034 11034 11034 11034 11034 11034 11035 11035 11035 11035 11035 11035 11035 11035 11034 11034 11033 11033 11033 11032 11032 11032 11031 11031 11031 11030 11029 11029 11028 11028 11027 11027 11026 11025 11024 11023 11022 11021 11021 11020 11020 11019 11018 11018 11017 11016 11015 11014 11012 11011 11011 11010 11009 11008
11015 11017 11018 11019 11019 11020 11021 11023 11023 11023 11023 11023 11023 11025 11026 11026 11027 11027 11028 11029 11030 11031 11031 11031 11031 11031 11031 11032 11032 11032 11033 11033 11033 11033 11033 11033 11034 11034 11034 11034 11034 11034 11034 11034 11034 11034 11033 11033 11032 11032 11031 11031 11031 11030 11030 11030 11029 11029 11028 11027 11027 11027 11026 11025 11025 11024 11023 11022 11021 11020 11019 11018 11018 11017 11017 11016 11015 11014 11013 11012 11010 11010 11009 11008 11008
11012 11014 11015 11016 11017 11017 11018 11019 11020 11020 11020 11020 11020 11021 11022 11023 11023 11024 11025 11027 11028 11029 11030 11030 11030 11030 11030 11030 11031 11031 11031 11031 11032 11032 11032 11032 11032 11032 11033 11033 11033 11033 11033 11033 11033 11032 11032 11032 11032 11031 11031 11030 11030 11029 11029 11028 11028 11027 11027 11026 11025 11025 11025 11024 11023 11022 11021 11021 11020 11020 11018 11017 11016 11016 11015 11014 11014 11013 11011 11010 11009 11008 11007 11006 11006
11008 11010 11011 11013 11014 11014 11014 11015 11016 11016 11016 11016 11016 11016 11017 11018 11019 11020 11022 11023 11025 11026 11028 11029 11029 11029 11029 11029 11029 11029 11029 11029 11029 11029 11029 11029 11029 11030 11030 11031 11031 11032 11032 11031 11031 11030 11030 11030 11030 11030 11030 11029 11029 11028 11028 11027 11027 11026 11025 11024 11023 11023 11023 11022 11021 11020 11019 11018 11018 11018 11018 11016 11014 11014 11013 11012 11011 11010 11009 11008 11007 11006 11005 11004 11004
11004 11006 11007 11009 11010 11010 11011 11012 11011 11011 11012 11012 11011 11011 11013 11014 11015 11016 11018 11019 11021 11023 11025 11026 11026 11026 11027 11027 11027 11027 11027 11027 11027 11026 11026 11026 11026 11027 11028 11028 11029 11030 11030 11029 11027 11027 11028 11028 11028 11028 11028 11027 11027 11026 11026 11026 11025 11024 11023 11022 11021 11020 11020 11020 11019 11018 11017 11016 11014 11014 11016 11015 11012 11011 11011 11011 11010 11009 11007 11006 11005 11004 11003 11002 11002
10999 11000 11002 11003 11004 11005 11007 11008 11007 11007 11008 11008 11007 11007 11009 11010 11011 11012 11014 11015 11017 11019 11021 11022 11023 11023 11024 11025 11025 11025 11025 11025 11024 11024 11023 11023 11023 11024 11025 11025 11026 11027 11027 11026 11023 11023 11025 11025 11025 11025 11025 11024 11024 11023 11023 11023 11022 11021 11021 11020 11019 11018 11018 11018 11017 11016 11015 11014 11012 11010 11012 11012 11011 11009 11008 11009 11009 11007 11006 11005 11004 11003 11002 11002 11001
10992 10993 10995 10997 10999 11000 11002 11003 11004 11004 11004 11003 11003 11004 11004 11005 11006 11008 11010 11012 11013 11015 11017 11018 11019 11020 11021 11022 11022 11022 11022 11022 11022 11022 11021 11021 11020 11021 11022 11022 11022 11024 11024 11022 11020 11020 11021 11021 11021 11021 11021 11021 11021 11020 11020 11020 11020 11019 11017 11017 11016 11015 11015 11015 11015 11014 11013 11013 11011 11008 11008 11009 11009 11007 11006 11007 11008 11007 11005 11004 11004 11003 11002 11002 11001